Starlink 11545

operational
NORAD ID: 63016 Int'l Des: 2025-032 Owner: SPXS Country: US Constellation: starlink
LEOCIRCULAR

Über Starlink 11545

Beschreibung wird geladen...

Live-Position

3D-Globus wird geladen...

Nächste Überflüge

Höhenverlauf

Altitude vs Time

uPlot chart will show altitude changes over time

Zweizeiliger Elementsatz

1 63016U 25032M 25352.92828853 .00323129 00000-0 24069-2 0 9993
2 63016 42.9998 322.0061 0001301 231.5206 128.5545 15.71019480 49523
Epoch: 18. Dez. 2025 • Age: 8 hours

Aktueller Status

Höhe 358.8 km
Geschwindigkeit 7.70 km/s
Subsatellitenpunkt 40.78°N, 154.44°W
Startdatum 15. Feb. 2025
Alter 0.8 years
Typ internet

Technische Details

Klassifizierung Payload
Masse 960.00 kg
Trockenmasse 910.00 kg
Gesamtmasse 960.00 kg
Länge 0.30 m
Durchmesser 4.10 m
Spannweite 29.00 m
Form Box + pan
Hersteller SPXS
Bus-Typ Starlink V2MD
Phasenstatus In Orbit
Besitzer/Staat SPXS/US

Große Konstellationen

Loading constellations...